| time (UTC) | temp C | wind direction | speed KPH | gust KPH | rain 1hr cm | rain 24hr cm | rain mn cm | humidity % | barometer mb |
| 20260507014900 | 14 | 33 | 0.0 | 0.0 | 0.00 | 0.00 | 0.00 | 100 | 1020.1 |
| 20260507014400 | 14 | 33 | 0.0 | 3.2 | 0.00 | 0.00 | 0.00 | 100 | 1020.2 |
| 20260507013900 | 14 | 32 | 0.0 | 3.2 | 0.00 | 0.00 | 0.00 | 100 | 1020.2 |
| 20260507013400 | 14 | 33 | 0.0 | 1.6 | 0.00 | 0.00 | 0.00 | 100 | 1020.2 |
| 20260507012859 | 14 | 33 | 0.0 | 1.6 | 0.00 | 0.00 | 0.00 | 100 | 1020.2 |
| 20260507012400 | 14 | 33 | 0.0 | 3.2 | 0.00 | 0.00 | 0.00 | 100 | 1020.2 |
| 20260507011900 | 14 | 33 | 0.0 | 3.2 | 0.00 | 0.00 | 0.00 | 100 | 1020.1 |
| 20260507011400 | 14 | 33 | 0.0 | 3.2 | 0.00 | 0.00 | 0.00 | 100 | 1020.2 |
| 20260507010900 | 14 | 33 | 0.0 | 3.2 | 0.00 | 0.00 | 0.00 | 100 | 1020.2 |
| 20260507010400 | 14 | 33 | 0.0 | 3.2 | 0.00 | 0.00 | 0.00 | 100 | 1020.3 |
| 20260507005900 | 14 | 33 | 0.0 | 3.2 | 0.00 | 0.00 | 0.00 | 100 | 1020.3 |
| 20260507005400 | 14 | 33 | 0.0 | 3.2 | 0.00 | 0.00 | 0.00 | 100 | 1020.3 |
| 20260507004900 | 14 | 33 | 0.0 | 1.6 | 0.00 | 0.00 | 0.00 | 100 | 1020.4 |
| 20260507004400 | 14 | 33 | 0.0 | 3.2 | 0.00 | 0.00 | 0.00 | 100 | 1020.3 |
| 20260507003858 | 14 | 33 | 0.0 | 3.2 | 0.00 | 0.00 | 0.00 | 100 | 1020.3 |
| 20260507003618 | 14 | 33 | 0.0 | 3.2 | 0.00 | 0.00 | 0.00 | 100 | 1020.2 |
| 20260507002859 | 14 | 33 | 0.0 | 3.2 | 0.00 | 0.00 | 0.00 | 100 | 1020.2 |
| 20260507002357 | 14 | 33 | 1.6 | 3.2 | 0.00 | 0.00 | 0.00 | 100 | 1020.3 |
| 20260507001857 | 14 | 32 | 1.6 | 3.2 | 0.00 | 0.00 | 0.00 | 100 | 1020.2 |
| 20260507001615 | 14 | 39 | 0.0 | 3.2 | 0.00 | 0.00 | 0.00 | 100 | 1020.3 |
| 20260507001120 | 14 | 39 | 0.0 | 3.2 | 0.00 | 0.00 | 0.00 | 100 | 1020.2 |
| 20260507000359 | 14 | 39 | 0.0 | 4.8 | 0.00 | 0.00 | 0.00 | 100 | 1020.2 |
| 20260506235859 | 14 | 35 | 1.6 | 4.8 | 0.00 | 0.00 | 0.00 | 100 | 1020.1 |
| 20260506235359 | 14 | 34 | 0.0 | 4.8 | 0.00 | 0.00 | 0.00 | 100 | 1020.2 |
| 20260506235119 | 14 | 68 | 1.6 | 3.2 | 0.00 | 0.00 | 0.00 | 100 | 1020.2 |
| 20260506234400 | 14 | 68 | 1.6 | 3.2 | 0.00 | 0.00 | 0.00 | 100 | 1020.2 |
| 20260506233859 | 14 | 69 | 1.6 | 8.0 | 0.00 | 0.00 | 0.00 | 100 | 1020.2 |
| 20260506233359 | 14 | 68 | 3.2 | 8.0 | 0.00 | 0.00 | 0.00 | 100 | 1020.2 |
| 20260506232900 | 15 | 77 | 1.6 | 8.0 | 0.00 | 0.00 | 0.00 | 3 | 1020.2 |
| 20260506232359 | 14 | 83 | 0.0 | 1.6 | 0.00 | 0.00 | 0.00 | 16 | 1020.3 |
| 20260506231858 | 14 | 83 | 0.0 | 0.0 | 0.00 | 0.00 | 0.00 | 16 | 1020.4 |
| 20260506231357 | 14 | 83 | 0.0 | 0.0 | 0.00 | 0.00 | 0.00 | 19 | 1020.3 |
| 20260506230857 | 14 | 83 | 0.0 | 0.0 | 0.00 | 0.00 | 0.00 | 17 | 1020.3 |
| 20260506230357 | 14 | 83 | 0.0 | 0.0 | 0.00 | 0.00 | 0.00 | 20 | 1020.3 |
| 20260506225857 | 14 | 83 | 0.0 | 0.0 | 0.00 | 0.00 | 0.00 | 20 | 1020.3 |
| 20260506225357 | 14 | 83 | 0.0 | 0.0 | 0.00 | 0.00 | 0.00 | 19 | 1020.3 |
| 20260506224855 | 14 | 82 | 0.0 | 0.0 | 0.00 | 0.00 | 0.00 | 15 | 1020.3 |
| 20260506224356 | 14 | 83 | 0.0 | 0.0 | 0.00 | 0.00 | 0.00 | 14 | 1020.4 |
| 20260506223855 | 14 | 84 | 0.0 | 0.0 | 0.00 | 0.00 | 0.00 | 15 | 1020.4 |
| 20260506223356 | 14 | 81 | 0.0 | 0.0 | 0.00 | 0.00 | 0.00 | 15 | 1020.5 |
| 20260506222855 | 14 | 82 | 0.0 | 0.0 | 0.00 | 0.00 | 0.00 | 8 | 1020.4 |
| 20260506222355 | 14 | 81 | 0.0 | 0.0 | 0.00 | 0.00 | 0.00 | 11 | 1020.4 |
| 20260506222113 | 14 | 83 | 0.0 | 0.0 | 0.00 | 0.00 | 0.00 | 11 | 1020.4 |
| 20260506221355 | 14 | 83 | 0.0 | 0.0 | 0.00 | 0.00 | 0.00 | 11 | 1020.4 |
| 20260506220854 | 14 | 83 | 0.0 | 0.0 | 0.00 | 0.00 | 0.00 | 10 | 1020.4 |
| 20260506220355 | 14 | 83 | 0.0 | 0.0 | 0.00 | 0.00 | 0.00 | 12 | 1020.4 |
| 20260506215855 | 14 | 83 | 0.0 | 1.6 | 0.00 | 0.00 | 0.00 | 10 | 1020.5 |
| 20260506215617 | 14 | 83 | 0.0 | 1.6 | 0.00 | 0.00 | 0.00 | 10 | 1020.5 |
| 20260506214854 | 14 | 83 | 0.0 | 1.6 | 0.00 | 0.00 | 0.00 | 9 | 1020.5 |
| 20260506214351 | 14 | 83 | 0.0 | 1.6 | 0.00 | 0.00 | 0.00 | 5 | 1020.5 |
| 20260506213851 | 14 | 83 | 0.0 | 3.2 | 0.00 | 0.00 | 0.00 | 5 | 1020.5 |
| 20260506213351 | 13 | 83 | 0.0 | 3.2 | 0.00 | 0.00 | 0.00 | 4 | 1020.5 |
| 20260506212848 | 13 | 87 | 0.0 | 3.2 | 0.00 | 0.00 | 0.00 | 100 | 1020.5 |
| 20260506212348 | 13 | 87 | 0.0 | 3.2 | 0.00 | 0.00 | 0.00 | 6 | 1020.6 |
| 20260506211849 | 13 | 87 | 0.0 | 1.6 | 0.00 | 0.00 | 0.00 | 3 | 1020.5 |
| 20260506211349 | 13 | 85 | 0.0 | 3.2 | 0.00 | 0.00 | 0.00 | 3 | 1020.6 |
| 20260506210847 | 13 | 87 | 0.0 | 3.2 | 0.00 | 0.00 | 0.00 | 100 | 1020.5 |
| 20260506210348 | 13 | 86 | 0.0 | 1.6 | 0.00 | 0.00 | 0.00 | 100 | 1020.6 |
| 20260506205848 | 13 | 87 | 0.0 | 1.6 | 0.00 | 0.00 | 0.00 | 100 | 1020.7 |
| 20260506205348 | 13 | 86 | 0.0 | 1.6 | 0.00 | 0.00 | 0.00 | 100 | 1020.6 |
| 20260506204847 | 13 | 87 | 0.0 | 1.6 | 0.00 | 0.00 | 0.00 | 100 | 1020.6 |
| 20260506204608 | 13 | 87 | 0.0 | 1.6 | 0.00 | 0.00 | 0.00 | 100 | 1020.6 |
| 20260506203847 | 13 | 87 | 0.0 | 1.6 | 0.00 | 0.00 | 0.00 | 1 | 1020.6 |
| 20260506203347 | 13 | 86 | 0.0 | 1.6 | 0.00 | 0.00 | 0.00 | 100 | 1020.5 |
| 20260506202847 | 13 | 87 | 0.0 | 1.6 | 0.00 | 0.00 | 0.00 | 100 | 1020.5 |
| 20260506202346 | 13 | 88 | 0.0 | 1.6 | 0.00 | 0.00 | 0.00 | 100 | 1020.3 |
| 20260506202109 | 13 | 86 | 0.0 | 1.6 | 0.00 | 0.00 | 0.00 | 100 | 1020.4 |
| 20260506201346 | 13 | 85 | 0.0 | 1.6 | 0.00 | 0.00 | 0.00 | 100 | 1020.4 |
| 20260506200845 | 13 | 87 | 0.0 | 1.6 | 0.00 | 0.00 | 0.00 | 100 | 1020.3 |
| 20260506200346 | 13 | 86 | 0.0 | 1.6 | 0.00 | 0.00 | 0.00 | 100 | 1020.3 |
| 20260506195846 | 13 | 87 | 0.0 | 3.2 | 0.00 | 0.00 | 0.00 | 100 | 1020.3 |
| 20260506195346 | 13 | 85 | 0.0 | 3.2 | 0.00 | 0.00 | 0.00 | 100 | 1020.3 |
| 20260506195117 | 13 | 86 | 0.0 | 3.2 | 0.00 | 0.00 | 0.00 | 100 | 1020.4 |
| 20260506194345 | 13 | 87 | 0.0 | 3.2 | 0.00 | 0.00 | 0.00 | 100 | 1020.3 |
| 20260506193845 | 13 | 87 | 0.0 | 1.6 | 0.00 | 0.00 | 0.00 | 100 | 1020.4 |
| 20260506193346 | 13 | 85 | 0.0 | 3.2 | 0.00 | 0.00 | 0.00 | 100 | 1020.3 |
| 20260506192846 | 13 | 87 | 0.0 | 3.2 | 0.00 | 0.00 | 0.00 | 100 | 1020.3 |
| 20260506192346 | 13 | 85 | 0.0 | 1.6 | 0.00 | 0.00 | 0.00 | 100 | 1020.2 |
| 20260506191846 | 13 | 89 | 0.0 | 3.2 | 0.00 | 0.00 | 0.00 | 100 | 1020.2 |
| 20260506191346 | 13 | 80 | 0.0 | 3.2 | 0.00 | 0.00 | 0.00 | 100 | 1020.3 |
| 20260506190846 | 12 | 80 | 0.0 | 3.2 | 0.00 | 0.00 | 0.00 | 100 | 1020.2 |
| 20260506190825 | 12 | 78 | 0.0 | 1.6 | 0.00 | 0.00 | 0.00 | 100 | 1020.2 |
| 20260506185848 | 12 | 79 | 0.0 | 1.6 | 0.00 | 0.00 | 0.00 | 100 | 1020.1 |
| 20260506185348 | 12 | 81 | 0.0 | 1.6 | 0.00 | 0.00 | 0.00 | 100 | 1020.2 |
| 20260506184845 | 12 | 81 | 0.0 | 3.2 | 0.00 | 0.00 | 0.00 | 100 | 1020.1 |
| 20260506184345 | 12 | 79 | 0.0 | 3.2 | 0.00 | 0.00 | 0.00 | 100 | 1020.1 |
| 20260506183845 | 12 | 80 | 0.0 | 3.2 | 0.00 | 0.00 | 0.00 | 100 | 1020.1 |
| 20260506183344 | 12 | 81 | 0.0 | 3.2 | 0.00 | 0.00 | 0.00 | 100 | 1020.1 |
| 20260506182843 | 12 | 59 | 0.0 | 1.6 | 0.00 | 0.00 | 0.00 | 100 | 1020.0 |
| 20260506182344 | 12 | 60 | 0.0 | 4.8 | 0.00 | 0.00 | 0.00 | 100 | 1020.1 |
| 20260506181844 | 12 | 88 | 0.0 | 4.8 | 0.00 | 0.00 | 0.00 | 100 | 1020.1 |
| 20260506181344 | 12 | 90 | 0.0 | 1.6 | 0.00 | 0.00 | 0.00 | 100 | 1020.1 |
| 20260506180844 | 12 | 93 | 0.0 | 1.6 | 0.00 | 0.00 | 0.00 | 100 | 1020.0 |
| 20260506180344 | 12 | 283 | 0.0 | 1.6 | 0.00 | 0.00 | 0.00 | 100 | 1019.9 |
| 20260506175843 | 12 | 121 | 0.0 | 1.6 | 0.00 | 0.00 | 0.00 | 100 | 1019.9 |
| 20260506175344 | 12 | 203 | 0.0 | 3.2 | 0.00 | 0.00 | 0.00 | 100 | 1019.9 |
| 20260506174844 | 12 | 204 | 0.0 | 3.2 | 0.00 | 0.00 | 0.00 | 100 | 1019.9 |
| 20260506174344 | 12 | 36 | 0.0 | 1.6 | 0.00 | 0.00 | 0.00 | 100 | 1019.9 |
| 20260506173844 | 12 | 35 | 0.0 | 3.2 | 0.00 | 0.00 | 0.00 | 100 | 1020.0 |
| 20260506173344 | 12 | 34 | 0.0 | 3.2 | 0.00 | 0.00 | 0.00 | 100 | 1019.8 |
| 20260506172844 | 12 | 31 | 0.0 | 1.6 | 0.00 | 0.00 | 0.00 | 100 | 1019.7 |
| 20260506172345 | 12 | 24 | 0.0 | 3.2 | 0.00 | 0.00 | 0.00 | 100 | 1019.5 |
| 20260506171844 | 12 | 24 | 0.0 | 4.8 | 0.00 | 0.00 | 0.00 | 100 | 1019.5 |
| 20260506171344 | 12 | 37 | 0.0 | 4.8 | 0.00 | 0.00 | 0.00 | 100 | 1019.6 |
| 20260506170841 | 12 | 4 | 0.0 | 4.8 | 0.00 | 0.00 | 0.00 | 100 | 1019.7 |
| 20260506170342 | 12 | 31 | 0.0 | 3.2 | 0.00 | 0.00 | 0.00 | 100 | 1019.7 |
| 20260506165842 | 12 | 4 | 0.0 | 1.6 | 0.00 | 0.00 | 0.00 | 100 | 1019.7 |
| 20260506165342 | 12 | 4 | 0.0 | 3.2 | 0.00 | 0.00 | 0.00 | 100 | 1019.7 |
| 20260506164842 | 12 | 354 | 0.0 | 3.2 | 0.00 | 0.00 | 0.00 | 100 | 1019.8 |
| 20260506164342 | 12 | 4 | 0.0 | 1.6 | 0.00 | 0.00 | 0.00 | 100 | 1019.8 |
| 20260506163842 | 12 | 30 | 0.0 | 1.6 | 0.00 | 0.00 | 0.00 | 100 | 1019.6 |
| 20260506163342 | 12 | 276 | 0.0 | 1.6 | 0.00 | 0.00 | 0.00 | 100 | 1019.7 |
| 20260506162842 | 12 | 60 | 0.0 | 1.6 | 0.00 | 0.00 | 0.00 | 100 | 1019.7 |
| 20260506162342 | 12 | 58 | 0.0 | 1.6 | 0.00 | 0.00 | 0.00 | 100 | 1019.7 |
| 20260506162102 | 12 | 58 | 0.0 | 1.6 | 0.00 | 0.00 | 0.00 | 100 | 1019.7 |
| 20260506161602 | 12 | 58 | 0.0 | 1.6 | 0.00 | 0.00 | 0.00 | 100 | 1019.7 |
| 20260506160842 | 12 | 56 | 0.0 | 1.6 | 0.00 | 0.00 | 0.00 | 100 | 1019.5 |
| 20260506160342 | 12 | 52 | 0.0 | 1.6 | 0.00 | 0.00 | 0.00 | 100 | 1019.4 |
| 20260506155340 | 12 | 46 | 0.0 | 3.2 | 0.00 | 0.00 | 0.00 | 100 | 1019.2 |
| 20260506154839 | 12 | 44 | 0.0 | 3.2 | 0.00 | 0.00 | 0.00 | 100 | 1019.2 |
| 20260506154339 | 12 | 39 | 0.0 | 3.2 | 0.00 | 0.00 | 0.00 | 100 | 1018.9 |
| 20260506153839 | 12 | 62 | 0.0 | 3.2 | 0.00 | 0.00 | 0.00 | 100 | 1018.8 |
| 20260506153337 | 12 | 62 | 0.0 | 3.2 | 0.00 | 0.00 | 0.00 | 100 | 1018.9 |
| 20260506152837 | 12 | 48 | 0.0 | 3.2 | 0.00 | 0.00 | 0.00 | 100 | 1019.0 |
| 20260506152336 | 12 | 45 | 0.0 | 1.6 | 0.00 | 0.00 | 0.00 | 100 | 1019.0 |
| 20260506151837 | 12 | 35 | 0.0 | 4.8 | 0.00 | 0.00 | 0.00 | 100 | 1019.1 |
| 20260506151559 | 12 | 36 | 0.0 | 4.8 | 0.00 | 0.00 | 0.00 | 100 | 1019.1 |
| 20260506150837 | 12 | 57 | 0.0 | 3.2 | 0.00 | 0.00 | 0.00 | 100 | 1019.2 |
| 20260506150337 | 12 | 37 | 0.0 | 1.6 | 0.00 | 0.00 | 0.00 | 100 | 1019.1 |
| 20260506145837 | 12 | 37 | 0.0 | 1.6 | 0.00 | 0.00 | 0.00 | 100 | 1019.2 |
| 20260506145336 | 12 | 318 | 0.0 | 3.2 | 0.00 | 0.00 | 0.00 | 100 | 1019.2 |
| 20260506144836 | 12 | 316 | 0.0 | 3.2 | 0.00 | 0.00 | 0.00 | 100 | 1019.2 |
| 20260506144336 | 12 | 56 | 0.0 | 3.2 | 0.00 | 0.00 | 0.00 | 100 | 1019.3 |
| 20260506143836 | 12 | 359 | 0.0 | 3.2 | 0.00 | 0.00 | 0.00 | 100 | 1019.3 |
| 20260506143336 | 12 | 359 | 0.0 | 3.2 | 0.00 | 0.00 | 0.00 | 100 | 1019.1 |
| 20260506142836 | 12 | 37 | 0.0 | 1.6 | 0.00 | 0.00 | 0.00 | 100 | 1018.9 |
| 20260506142336 | 12 | 57 | 0.0 | 1.6 | 0.00 | 0.00 | 0.00 | 100 | 1018.7 |
| 20260506141835 | 12 | 58 | 0.0 | 1.6 | 0.00 | 0.00 | 0.00 | 100 | 1018.8 |
| 20260506141336 | 12 | 64 | 0.0 | 3.2 | 0.00 | 0.00 | 0.00 | 100 | 1019.0 |
| 20260506140835 | 12 | 63 | 0.0 | 3.2 | 0.00 | 0.00 | 0.00 | 100 | 1019.0 |
| 20260506140335 | 12 | 82 | 0.0 | 1.6 | 0.00 | 0.00 | 0.00 | 100 | 1019.0 |
| 20260506135834 | 12 | 115 | 0.0 | 1.6 | 0.00 | 0.00 | 0.00 | 100 | 1019.1 |
| 20260506135334 | 12 | 115 | 0.0 | 1.6 | 0.00 | 0.00 | 0.00 | 100 | 1019.0 |
| 20260506134834 | 12 | 299 | 0.0 | 4.8 | 0.00 | 0.00 | 0.00 | 100 | 1018.9 |
| 20260506134335 | 12 | 305 | 0.0 | 4.8 | 0.00 | 0.00 | 0.00 | 100 | 1018.8 |
| 20260506133835 | 12 | 132 | 0.0 | 1.6 | 0.00 | 0.00 | 0.00 | 100 | 1018.9 |
| 20260506133335 | 12 | 131 | 0.0 | 1.6 | 0.00 | 0.00 | 0.00 | 100 | 1018.9 |
| 20260506132836 | 12 | 132 | 0.0 | 3.2 | 0.00 | 0.00 | 0.00 | 100 | 1018.9 |
| 20260506132335 | 12 | 132 | 0.0 | 3.2 | 0.00 | 0.00 | 0.00 | 100 | 1018.9 |
| 20260506131835 | 12 | 10 | 0.0 | 3.2 | 0.00 | 0.00 | 0.00 | 100 | 1019.0 |
| 20260506131557 | 12 | 10 | 0.0 | 3.2 | 0.00 | 0.00 | 0.00 | 100 | 1019.0 |
| 20260506131320 | 12 | 16 | 0.0 | 1.6 | 0.00 | 0.00 | 0.00 | 100 | 1018.8 |
| 20260506130554 | 12 | 65 | 0.0 | 1.6 | 0.00 | 0.00 | 0.00 | 100 | 1018.7 |
| 20260506125832 | 12 | 50 | 0.0 | 1.6 | 0.00 | 0.00 | 0.00 | 100 | 1018.7 |
| 20260506125333 | 12 | 54 | 0.0 | 1.6 | 0.00 | 0.00 | 0.00 | 100 | 1018.7 |
| 20260506124834 | 12 | 39 | 0.0 | 1.6 | 0.00 | 0.00 | 0.00 | 100 | 1018.6 |
| 20260506124812 | 12 | 55 | 0.0 | 0.0 | 0.00 | 0.00 | 0.00 | 100 | 1018.6 |
| 20260506123833 | 12 | 56 | 0.0 | 0.0 | 0.00 | 0.00 | 0.00 | 100 | 1018.5 |
| 20260506123333 | 12 | 57 | 0.0 | 3.2 | 0.00 | 0.00 | 0.00 | 100 | 1018.5 |
| 20260506122832 | 12 | 55 | 0.0 | 3.2 | 0.00 | 0.00 | 0.00 | 100 | 1018.3 |
| 20260506122556 | 12 | 70 | 0.0 | 4.8 | 0.00 | 0.00 | 0.00 | 100 | 1018.2 |
| 20260506121833 | 12 | 114 | 0.0 | 4.8 | 0.00 | 0.00 | 0.00 | 100 | 1018.3 |
| 20260506121558 | 12 | 52 | 0.0 | 0.0 | 0.00 | 0.00 | 0.00 | 100 | 1018.4 |
| 20260506120833 | 12 | 52 | 0.0 | 1.6 | 0.00 | 0.00 | 0.00 | 100 | 1018.4 |
| 20260506120333 | 12 | 52 | 0.0 | 3.2 | 0.00 | 0.00 | 0.00 | 100 | 1018.4 |
| 20260506115833 | 12 | 52 | 0.0 | 3.2 | 0.00 | 0.00 | 0.00 | 100 | 1018.3 |
| 20260506115331 | 12 | 267 | 0.0 | 3.2 | 0.00 | 0.00 | 0.00 | 100 | 1018.2 |
| 20260506114831 | 12 | 359 | 0.0 | 3.2 | 0.00 | 0.00 | 0.00 | 100 | 1018.2 |
| 20260506114331 | 12 | 325 | 0.0 | 3.2 | 0.00 | 0.00 | 0.00 | 100 | 1018.2 |
| 20260506113832 | 12 | 160 | 0.0 | 3.2 | 0.00 | 0.00 | 0.00 | 100 | 1018.0 |
| 20260506113330 | 12 | 102 | 0.0 | 3.2 | 0.00 | 0.00 | 0.00 | 100 | 1018.0 |
| 20260506112830 | 12 | 30 | 0.0 | 6.4 | 0.00 | 0.00 | 0.00 | 100 | 1018.0 |
| 20260506112331 | 12 | 157 | 0.0 | 6.4 | 0.00 | 0.00 | 0.00 | 100 | 1018.0 |
| 20260506111832 | 12 | 31 | 0.0 | 1.6 | 0.00 | 0.00 | 0.00 | 100 | 1018.0 |
| 20260506111330 | 12 | 35 | 0.0 | 3.2 | 0.00 | 0.00 | 0.00 | 100 | 1017.9 |
| 20260506110830 | 12 | 324 | 0.0 | 3.2 | 0.00 | 0.00 | 0.00 | 100 | 1017.9 |
| 20260506110330 | 12 | 31 | 0.0 | 3.2 | 0.00 | 0.00 | 0.00 | 100 | 1017.8 |
| 20260506105830 | 12 | 27 | 0.0 | 4.8 | 0.00 | 0.00 | 0.00 | 100 | 1017.7 |
| 20260506105331 | 12 | 176 | 0.0 | 4.8 | 0.00 | 0.00 | 0.00 | 100 | 1017.7 |
| 20260506104831 | 12 | 328 | 0.0 | 4.8 | 0.00 | 0.00 | 0.00 | 100 | 1017.7 |
| 20260506104552 | 12 | 104 | 0.0 | 4.8 | 0.00 | 0.00 | 0.00 | 100 | 1017.7 |
| 20260506103831 | 12 | 75 | 0.0 | 3.2 | 0.00 | 0.00 | 0.00 | 100 | 1017.6 |
| 20260506103550 | 12 | 76 | 0.0 | 3.2 | 0.00 | 0.00 | 0.00 | 100 | 1017.6 |
| 20260506102831 | 12 | 58 | 0.0 | 1.6 | 0.00 | 0.00 | 0.00 | 100 | 1017.6 |
| 20260506102331 | 12 | 60 | 0.0 | 1.6 | 0.00 | 0.00 | 0.00 | 100 | 1017.6 |
| 20260506101838 | 12 | 59 | 0.0 | 1.6 | 0.00 | 0.00 | 0.00 | 100 | 1017.7 |
| 20260506101329 | 12 | 63 | 0.0 | 1.6 | 0.00 | 0.00 | 0.00 | 100 | 1017.7 |
| 20260506101050 | 12 | 62 | 0.0 | 3.2 | 0.00 | 0.00 | 0.00 | 100 | 1017.8 |
| 20260506100328 | 12 | 82 | 0.0 | 3.2 | 0.00 | 0.00 | 0.00 | 100 | 1017.8 |
| 20260506100047 | 12 | 148 | 0.0 | 1.6 | 0.00 | 0.00 | 0.00 | 100 | 1017.7 |
| 20260506095812 | 12 | 151 | 0.0 | 4.8 | 0.00 | 0.00 | 0.00 | 100 | 1017.6 |
| 20260506094829 | 12 | 34 | 0.0 | 4.8 | 0.00 | 0.00 | 0.00 | 100 | 1017.6 |
| 20260506094329 | 12 | 4 | 0.0 | 1.6 | 0.00 | 0.00 | 0.00 | 100 | 1017.6 |
| 20260506093829 | 12 | 23 | 0.0 | 3.2 | 0.00 | 0.00 | 0.00 | 100 | 1017.5 |
| 20260506093329 | 12 | 308 | 0.0 | 3.2 | 0.00 | 0.00 | 0.00 | 100 | 1017.5 |
| 20260506092828 | 12 | 77 | 0.0 | 0.0 | 0.00 | 0.00 | 0.00 | 100 | 1017.4 |
| 20260506092329 | 12 | 77 | 0.0 | 0.0 | 0.00 | 0.00 | 0.00 | 100 | 1017.4 |
| 20260506091830 | 12 | 77 | 0.0 | 0.0 | 0.00 | 0.00 | 0.00 | 100 | 1017.4 |
| 20260506091549 | 12 | 75 | 0.0 | 0.0 | 0.00 | 0.00 | 0.00 | 100 | 1017.3 |
| 20260506090829 | 12 | 77 | 0.0 | 0.0 | 0.00 | 0.00 | 0.00 | 100 | 1017.3 |
| 20260506090328 | 12 | 78 | 0.0 | 0.0 | 0.00 | 0.00 | 0.00 | 100 | 1017.3 |
| 20260506090046 | 12 | 77 | 0.0 | 0.0 | 0.00 | 0.00 | 0.00 | 100 | 1017.2 |
| 20260506085549 | 12 | 77 | 0.0 | 0.0 | 0.00 | 0.00 | 0.00 | 100 | 1017.2 |
| 20260506084829 | 12 | 77 | 0.0 | 0.0 | 0.00 | 0.00 | 0.00 | 100 | 1017.1 |
| 20260506084548 | 12 | 77 | 0.0 | 0.0 | 0.00 | 0.00 | 0.00 | 100 | 1017.1 |
| 20260506084049 | 12 | 77 | 0.0 | 0.0 | 0.00 | 0.00 | 0.00 | 100 | 1017.1 |
| 20260506083327 | 12 | 77 | 0.0 | 0.0 | 0.00 | 0.00 | 0.00 | 100 | 1017.1 |
| 20260506082827 | 12 | 77 | 0.0 | 0.0 | 0.00 | 0.00 | 0.00 | 100 | 1017.0 |
| 20260506082327 | 13 | 79 | 0.0 | 0.0 | 0.00 | 0.00 | 0.00 | 100 | 1016.9 |
| 20260506081826 | 13 | 72 | 0.0 | 0.0 | 0.00 | 0.00 | 0.00 | 100 | 1016.8 |
| 20260506081548 | 13 | 73 | 0.0 | 0.0 | 0.00 | 0.00 | 0.00 | 100 | 1016.8 |
| 20260506081046 | 13 | 72 | 0.0 | 0.0 | 0.00 | 0.00 | 0.00 | 100 | 1016.7 |
| 20260506080544 | 13 | 101 | 0.0 | 0.0 | 0.00 | 0.00 | 0.00 | 100 | 1016.6 |
| 20260506073327 | 13 | 101 | 0.0 | 0.0 | 0.00 | 0.00 | 0.00 | 100 | 1016.5 |
| 20260506072827 | 13 | 101 | 0.0 | 0.0 | 0.00 | 0.00 | 0.00 | 100 | 1016.5 |
| 20260506072327 | 13 | 100 | 0.0 | 0.0 | 0.00 | 0.00 | 0.00 | 100 | 1016.5 |
| 20260506071827 | 13 | 100 | 0.0 | 0.0 | 0.00 | 0.00 | 0.00 | 100 | 1016.4 |
| 20260506071556 | 13 | 100 | 0.0 | 0.0 | 0.00 | 0.00 | 0.00 | 100 | 1016.4 |
| 20260506070828 | 13 | 101 | 0.0 | 0.0 | 0.00 | 0.00 | 0.00 | 100 | 1016.4 |
| 20260506070327 | 13 | 99 | 0.0 | 0.0 | 0.00 | 0.00 | 0.00 | 100 | 1016.4 |
| 20260506062326 | 14 | 101 | 0.0 | 3.2 | 0.00 | 0.00 | 0.00 | 100 | 1016.1 |
| 20260506062053 | 14 | 101 | 0.0 | 3.2 | 0.00 | 0.00 | 0.00 | 100 | 1016.2 |
| 20260506061544 | 14 | 102 | 0.0 | 1.6 | 0.00 | 0.00 | 0.00 | 100 | 1016.1 |
| 20260506060826 | 14 | 100 | 0.0 | 1.6 | 0.00 | 0.00 | 0.00 | 100 | 1016.1 |
| 20260506060326 | 14 | 101 | 0.0 | 1.6 | 0.00 | 0.00 | 0.00 | 100 | 1016.1 |
| 20260506051326 | 15 | 102 | 0.0 | 0.0 | 0.00 | 0.00 | 0.00 | 100 | 1015.7 |
| 20260506050826 | 15 | 102 | 0.0 | 0.0 | 0.00 | 0.00 | 0.00 | 100 | 1015.5 |
| 20260506050326 | 15 | 101 | 0.0 | 0.0 | 0.00 | 0.00 | 0.00 | 100 | 1015.4 |
| 20260506044824 | 15 | 102 | 0.0 | 0.0 | 0.00 | 0.00 | 0.00 | 100 | 1015.3 |
| 20260506044323 | 15 | 103 | 0.0 | 0.0 | 0.00 | 0.00 | 0.00 | 100 | 1015.3 |
| 20260506043824 | 15 | 102 | 0.0 | 0.0 | 0.00 | 0.00 | 0.00 | 100 | 1015.2 |
| 20260506043817 | 15 | 101 | 0.0 | 0.0 | 0.00 | 0.00 | 0.00 | 100 | 1015.1 |
| 20260506042820 | 15 | 102 | 0.0 | 0.0 | 0.00 | 0.00 | 0.00 | 100 | 1015.1 |
| 20260506042539 | 15 | 101 | 0.0 | 0.0 | 0.00 | 0.00 | 0.00 | 100 | 1015.0 |
| 20260506041821 | 16 | 102 | 0.0 | 0.0 | 0.00 | 0.00 | 0.00 | 100 | 1015.0 |
| 20260506041321 | 16 | 100 | 0.0 | 0.0 | 0.00 | 0.00 | 0.00 | 100 | 1015.0 |
| 20260506040821 | 16 | 102 | 0.0 | 0.0 | 0.00 | 0.00 | 0.00 | 100 | 1015.0 |
| 20260506040321 | 16 | 102 | 0.0 | 0.0 | 0.00 | 0.00 | 0.00 | 100 | 1015.0 |
| 20260506035820 | 16 | 102 | 0.0 | 0.0 | 0.00 | 0.00 | 0.00 | 100 | 1014.9 |
| 20260506035320 | 16 | 102 | 0.0 | 0.0 | 0.00 | 0.00 | 0.00 | 100 | 1014.8 |
| 20260506034820 | 16 | 104 | 0.0 | 0.0 | 0.00 | 0.00 | 0.00 | 100 | 1014.9 |
| 20260506034320 | 16 | 102 | 0.0 | 0.0 | 0.00 | 0.00 | 0.00 | 100 | 1014.8 |
| 20260506033820 | 16 | 101 | 0.0 | 0.0 | 0.00 | 0.00 | 0.00 | 100 | 1014.8 |
| 20260506033320 | 16 | 103 | 0.0 | 0.0 | 0.00 | 0.00 | 0.00 | 100 | 1014.8 |
| 20260506032820 | 16 | 102 | 0.0 | 0.0 | 0.00 | 0.00 | 0.00 | 100 | 1014.7 |
| 20260506032319 | 16 | 102 | 0.0 | 0.0 | 0.00 | 0.00 | 0.00 | 100 | 1014.7 |
| 20260506031818 | 16 | 103 | 0.0 | 0.0 | 0.00 | 0.00 | 0.00 | 100 | 1014.7 |
| 20260506031318 | 17 | 102 | 0.0 | 0.0 | 0.00 | 0.00 | 0.00 | 100 | 1014.6 |
| 20260506031036 | 17 | 101 | 0.0 | 0.0 | 0.00 | 0.00 | 0.00 | 100 | 1014.6 |
| 20260506030539 | 17 | 101 | 0.0 | 0.0 | 0.00 | 0.00 | 0.00 | 100 | 1014.6 |
| 20260506025816 | 17 | 102 | 0.0 | 0.0 | 0.00 | 0.00 | 0.00 | 1 | 1014.5 |
| 20260506025316 | 17 | 102 | 0.0 | 0.0 | 0.00 | 0.00 | 0.00 | 100 | 1014.5 |
| 20260506024816 | 17 | 100 | 0.0 | 0.0 | 0.00 | 0.00 | 0.00 | 100 | 1014.4 |
| 20260506024316 | 17 | 103 | 0.0 | 0.0 | 0.00 | 0.00 | 0.00 | 100 | 1014.4 |
| 20260506023816 | 17 | 101 | 0.0 | 0.0 | 0.00 | 0.00 | 0.00 | 15 | 1014.4 |
| 20260506023316 | 17 | 102 | 0.0 | 0.0 | 0.00 | 0.00 | 0.00 | 15 | 1014.3 |
| 20260506022815 | 17 | 103 | 0.0 | 0.0 | 0.00 | 0.00 | 0.00 | 16 | 1014.3 |
| 20260506022316 | 17 | 102 | 0.0 | 0.0 | 0.00 | 0.00 | 0.00 | 18 | 1014.3 |
| 20260506021816 | 17 | 103 | 0.0 | 0.0 | 0.00 | 0.00 | 0.00 | 19 | 1014.3 |
| 20260506021315 | 17 | 103 | 0.0 | 0.0 | 0.00 | 0.00 | 0.00 | 21 | 1014.4 |
| 20260506021045 | 18 | 102 | 0.0 | 0.0 | 0.00 | 0.00 | 0.00 | 23 | 1014.4 |
| 20260506020315 | 18 | 100 | 0.0 | 0.0 | 0.00 | 0.00 | 0.00 | 24 | 1014.3 |
| 20260506015814 | 18 | 101 | 0.0 | 0.0 | 0.00 | 0.00 | 0.00 | 25 | 1014.3 |